Printer-friendly version

IAU Minor Planet Center

Minor Planet Center

MPEC 2006-K66 : 2006 KV86

The following Minor Planet Electronic Circular may be linked-to from your own Web pages, but must not otherwise be redistributed electronically.


Read MPEC 2006-K65 Read MPEC 2006-K67


M.P.E.C. 2006-K66                                Issued 2006 May 29, 17:43 UT

     The Minor Planet Electronic Circulars contain information on unusual
         minor planets and routine data on comets.  They are published
   on behalf of Commission 20 of the International Astronomical Union by the
          Minor Planet Center, Smithsonian Astrophysical Observatory,
                          Cambridge, MA 02138, U.S.A.

                  Supported in part by the Brinson Foundation
                  Supported in part by the TABASGO Foundation
             Prepared using the Tamkin Foundation Computer Network

                              MPC@CFA.HARVARD.EDU
          URL http://cfa-www.harvard.edu/iau/mpc.html  ISSN 1523-6714

                                   2006 KV86

Observations:
     K06K86V* C2006 05 26.26184 13 25 03.97 -05 44 57.5          21.8 V EK066G96
     K06K86V  C2006 05 26.26681 13 25 03.72 -05 44 49.7          21.9 V EK066G96
     K06K86V  C2006 05 26.27181 13 25 03.46 -05 44 42.5          21.3 V EK066G96
     K06K86V  C2006 05 26.27675 13 25 03.25 -05 44 36.2          21.0 V EK066G96
     K06K86V  C2006 05 26.29780 13 25 02.28 -05 44 06.7          21.1 V EK066G96
     K06K86V  C2006 05 26.30359 13 25 02.02 -05 43 58.0          21.6 V EK066G96
     K06K86V  C2006 05 26.30943 13 25 01.74 -05 43 50.0          21.5 V EK066G96
     K06K86V  C2006 05 26.31529 13 25 01.48 -05 43 42.0          21.3 V EK066G96
     K06K86V  C2006 05 28.26952 13 23 40.84 -04 59 12.5          21.4 V EK066G96
     K06K86V  C2006 05 28.27551 13 23 40.59 -04 59 04.7          20.8 V EK066G96
     K06K86V  C2006 05 28.28150 13 23 40.34 -04 58 57.0          21.4 V EK066G96
     K06K86V  C2006 05 28.28766 13 23 40.16 -04 58 48.7          22.4 V EK066G96
     K06K86V  C2006 05 29.20080 13 23 05.91 -04 38 40.4          20.7 V EK066G96
     K06K86V  C2006 05 29.20593 13 23 05.67 -04 38 34.5          20.8 V EK066G96
     K06K86V  C2006 05 29.21112 13 23 05.51 -04 38 27.1          21.2 V EK066G96
     K06K86V  C2006 05 29.21626 13 23 05.29 -04 38 20.4          20.9 V EK066G96

Observer details:
G96 Mt. Lemmon Survey.  Observers E. J. Christensen, R. A. Kowalski,
    A. D. Grauer.  Measurers E. C. Beshore, E. J. Christensen, G. J. Garradd,
    A. R. Gibbs, A. D. Grauer, R. E. Hill, R. A. Kowalski, S. M. Larson,
    R. H. McNaught.  1.5-m reflector + CCD.

Orbital elements:
2006 KV86                                           PHA, Earth MOID = 0.0005 AU
Epoch 2006 Mar. 6.0 TT = JDT 2453800.5                  MPC
M 192.99095              (2000.0)            P               Q
n   0.51260319     Peri.  154.62919     +0.90965520     -0.13105949
a   1.5462576      Node   220.02476     +0.19081110     +0.97471685
e   0.3739034      Incl.   37.79705     +0.36894247     -0.18097091
P   1.92           H   18.5           G   0.15           U   8
Residuals in seconds of arc
060526 G96  0.4+  0.7-    060526 G96  0.1-  0.3+    060529 G96  0.2+  0.3+
060526 G96  0.1+  0.1+    060526 G96  0.0   0.1+    060529 G96  0.4-  0.5-
060526 G96  0.3-  0.3+    060528 G96  0.2-  0.3+    060529 G96  0.2+  0.1+
060526 G96  0.0   0.3-    060528 G96  0.3-  0.1+    060529 G96  0.0   0.1+
060526 G96  0.0   0.2-    060528 G96  0.3-  0.2-
060526 G96  0.0   0.4+    060528 G96  0.8+  0.2-

Ephemeris:
2006 KV86                a,e,i = 1.55, 0.37, 38                  q = 0.9682
Date    TT    R. A. (2000) Decl.     Delta      r     Elong.  Phase     V
2006 05 25    13 26.02   -06 14.6    1.112    1.988   138.6    19.7    21.2
2006 06 04    13 20.26   -02 40.6    1.183    1.961   126.2    24.7    21.5
2006 06 14    13 18.48   +00 03.5    1.267    1.931   115.1    28.4    21.7
2006 06 24    13 20.28   +02 02.0    1.359    1.899   105.2    31.1    21.9
2006 07 04    13 25.20   +03 21.9    1.453    1.864    96.4    32.8    22.0

Gareth V. Williams           (C) Copyright 2006 MPC           M.P.E.C. 2006-K66

Read MPEC 2006-K65 Read MPEC 2006-K67


Our Web policy. Index to the CBAT/MPC/ICQ pages.


Valid HTML 4.01!